DN1US-13 Weather Reports


time (UTC)temp
F
wind
direction
speed
knots
gust
knots
rain 1hr
in
rain 24hr
in
rain mn
in
humidity
%
barometer
mb
20260504202453 58 0 0.0 0.0 0.00 0.00 0.00 10 988.1
20260504201949 58 0 0.0 0.0 0.00 0.00 0.00 10 988.2
20260504201445 58 0 0.0 0.0 0.00 0.00 0.00 10 988.3
20260504200941 58 0 0.0 0.0 0.00 0.00 0.00 10 988.3
20260504200437 58 0 0.0 0.0 0.00 0.00 0.00 10 988.4
20260504195933 59 0 0.0 0.0 0.00 0.00 0.00 10 988.4
20260504195432 59 0 0.0 0.0 0.00 0.00 0.00 10 988.3
20260504194925 59 0 0.0 0.0 0.00 0.00 0.00 10 988.2
20260504194421 60 0 0.0 0.0 0.00 0.00 0.00 10 988.2
20260504193917 60 0 0.0 0.0 0.00 0.00 0.00 10 988.1
20260504193413 60 0 0.0 0.0 0.00 0.00 0.00 10 988.1
20260504192912 61 0 0.0 0.0 0.00 0.00 0.00 10 988.1
20260504192405 61 0 0.0 0.0 0.00 0.00 0.00 10 988.2
20260504191901 61 0 0.0 0.0 0.00 0.00 0.00 10 988.3
20260504191357 62 0 0.0 0.0 0.00 0.00 0.00 10 988.2
20260504190853 63 0 0.0 0.0 0.00 0.00 0.00 10 988.2
20260504190352 62 0 0.0 0.0 0.00 0.00 0.00 10 988.2
20260504185845 63 0 0.0 0.0 0.00 0.00 0.00 10 988.0
20260504185341 63 0 0.0 0.0 0.00 0.00 0.00 10 987.8
20260504184837 62 0 0.0 0.0 0.00 0.00 0.00 10 987.6
20260504184333 62 0 0.0 0.0 0.00 0.00 0.00 10 987.6
20260504183832 63 0 0.0 0.0 0.00 0.00 0.00 10 987.7
20260504183325 64 0 0.0 0.0 0.00 0.00 0.00 10 987.6
20260504182821 64 0 0.0 0.0 0.00 0.00 0.00 10 987.6
20260504182317 64 0 0.0 0.0 0.00 0.00 0.00 10 987.5
20260504181813 64 0 0.0 0.0 0.00 0.00 0.00 10 987.5
20260504181312 64 0 0.0 0.0 0.00 0.00 0.00 10 987.5
20260504180806 64 0 0.0 0.0 0.00 0.00 0.00 10 987.5
20260504180302 64 0 0.0 0.0 0.00 0.00 0.00 10 987.5
20260504175758 64 0 0.0 0.0 0.00 0.00 0.00 10 987.4
20260504175254 64 0 0.0 0.0 0.00 0.00 0.00 10 987.4
20260504174752 66 0 0.0 0.0 0.00 0.00 0.00 10 987.3
20260504174246 66 0 0.0 0.0 0.00 0.00 0.00 98 987.3
20260504173742 67 0 0.0 0.0 0.00 0.00 0.00 84 987.2
20260504173238 67 0 0.0 0.0 0.00 0.00 0.00 84 987.2
20260504172734 68 0 0.0 0.0 0.00 0.00 0.00 82 987.2
20260504172232 68 0 0.0 0.0 0.00 0.00 0.00 79 987.2
20260504171726 69 0 0.0 0.0 0.00 0.00 0.00 80 987.2
20260504171222 69 0 0.0 0.0 0.00 0.00 0.00 86 987.2
20260504170718 69 0 0.0 0.0 0.00 0.00 0.00 96 987.3
20260504170214 69 0 0.0 0.0 0.00 0.00 0.00 82 987.3
20260504160126 71 0 0.0 0.0 0.00 0.00 0.00 65 987.3
20260504151046 75 0 0.0 0.0 0.00 0.00 0.00 45 987.4
20260504150542 75 0 0.0 0.0 0.00 0.00 0.00 43 987.4
20260504140959 76 0 0.0 0.0 0.00 0.00 0.00 42 987.6
20260504140455 75 0 0.0 0.0 0.00 0.00 0.00 41 987.7
20260504130407 77 0 0.0 0.0 0.00 0.00 0.00 40 988.2
20260504120319 74 0 0.0 0.0 0.00 0.00 0.00 45 988.8
20260504110232 76 0 0.0 0.0 0.00 0.00 0.00 43 989.1
20260504100144 75 0 0.0 0.0 0.00 0.00 0.00 39 989.6
20260504081520 79 0 0.0 0.0 0.00 0.00 0.00 44 990.3
20260504081016 80 0 0.0 0.0 0.00 0.00 0.00 43 990.3
20260504080512 75 0 0.0 0.0 0.00 0.00 0.00 51 990.4
20260504050252 48 0 0.0 0.0 0.00 0.00 0.00 10 990.6
20260504045745 48 0 0.0 0.0 0.00 0.00 0.00 10 990.7
20260504045241 47 0 0.0 0.0 0.00 0.00 0.00 10 990.7
20260504044737 47 0 0.0 0.0 0.00 0.00 0.00 10 990.7
20260504044233 46 0 0.0 0.0 0.00 0.00 0.00 10 990.7
20260504043732 46 0 0.0 0.0 0.00 0.00 0.00 10 990.7
20260504043225 47 0 0.0 0.0 0.00 0.00 0.00 10 990.7
20260504042721 47 0 0.0 0.0 0.00 0.00 0.00 10 990.8
20260504042217 46 0 0.0 0.0 0.00 0.00 0.00 10 990.7
20260504041713 46 0 0.0 0.0 0.00 0.00 0.00 10 990.6
20260504041212 46 0 0.0 0.0 0.00 0.00 0.00 10 990.7
20260504040706 46 0 0.0 0.0 0.00 0.00 0.00 10 990.7
20260504040202 46 0 0.0 0.0 0.00 0.00 0.00 10 990.7
20260504035658 46 0 0.0 0.0 0.00 0.00 0.00 10 990.7
20260504035154 47 0 0.0 0.0 0.00 0.00 0.00 10 990.6
20260504034652 47 0 0.0 0.0 0.00 0.00 0.00 10 990.7
20260504034146 47 0 0.0 0.0 0.00 0.00 0.00 10 990.7
20260504033642 47 0 0.0 0.0 0.00 0.00 0.00 10 990.7
20260504033138 47 0 0.0 0.0 0.00 0.00 0.00 10 990.6
20260504032634 48 0 0.0 0.0 0.00 0.00 0.00 10 990.6
20260504032132 48 0 0.0 0.0 0.00 0.00 0.00 10 990.6
20260504031626 49 0 0.0 0.0 0.00 0.00 0.00 10 990.7
20260504031122 49 0 0.0 0.0 0.00 0.00 0.00 10 990.6
20260504030618 49 0 0.0 0.0 0.00 0.00 0.00 10 990.7
20260504030114 49 0 0.0 0.0 0.00 0.00 0.00 10 990.7
20260504025612 50 0 0.0 0.0 0.00 0.00 0.00 10 990.8
20260504025106 49 0 0.0 0.0 0.00 0.00 0.00 10 990.8
20260504024602 50 0 0.0 0.0 0.00 0.00 0.00 10 990.7
20260504024058 50 0 0.0 0.0 0.00 0.00 0.00 10 990.7
20260504023554 49 0 0.0 0.0 0.00 0.00 0.00 10 990.7
20260504023052 49 0 0.0 0.0 0.00 0.00 0.00 10 990.8
20260504022546 49 0 0.0 0.0 0.00 0.00 0.00 10 990.7
20260504022042 49 0 0.0 0.0 0.00 0.00 0.00 10 990.7
20260504021538 49 0 0.0 0.0 0.00 0.00 0.00 10 990.7
20260504021034 50 0 0.0 0.0 0.00 0.00 0.00 10 990.7
20260504020532 49 0 0.0 0.0 0.00 0.00 0.00 10 990.6
20260504020026 50 0 0.0 0.0 0.00 0.00 0.00 10 990.6
20260504015522 50 0 0.0 0.0 0.00 0.00 0.00 10 990.6
20260504015018 50 0 0.0 0.0 0.00 0.00 0.00 10 990.7
20260504014514 50 0 0.0 0.0 0.00 0.00 0.00 10 990.6
20260504014012 50 0 0.0 0.0 0.00 0.00 0.00 10 990.5
20260504013506 50 0 0.0 0.0 0.00 0.00 0.00 10 990.6
20260504013002 50 0 0.0 0.0 0.00 0.00 0.00 10 990.6
20260504012458 50 0 0.0 0.0 0.00 0.00 0.00 10 990.7
20260504011954 50 0 0.0 0.0 0.00 0.00 0.00 10 990.7
20260504011452 50 0 0.0 0.0 0.00 0.00 0.00 10 990.6
20260504010946 51 0 0.0 0.0 0.00 0.00 0.00 10 990.6
20260504010443 51 0 0.0 0.0 0.00 0.00 0.00 10 990.6
20260504005939 51 0 0.0 0.0 0.00 0.00 0.00 10 990.6
20260504004932 51 0 0.0 0.0 0.00 0.00 0.00 10 990.7
20260504004427 51 0 0.0 0.0 0.00 0.00 0.00 10 990.7
20260504003923 51 0 0.0 0.0 0.00 0.00 0.00 10 990.7
20260504003419 51 0 0.0 0.0 0.00 0.00 0.00 10 990.7
20260504002915 51 0 0.0 0.0 0.00 0.00 0.00 10 990.8
20260504002412 52 0 0.0 0.0 0.00 0.00 0.00 10 990.7
20260504001907 52 0 0.0 0.0 0.00 0.00 0.00 10 990.7
20260504001403 51 0 0.0 0.0 0.00 0.00 0.00 10 990.7
20260504000859 51 0 0.0 0.0 0.00 0.00 0.00 10 990.7
20260504000355 51 0 0.0 0.0 0.00 0.00 0.00 10 990.7
20260503235852 51 0 0.0 0.0 0.00 0.00 0.00 10 990.7
20260503235347 51 0 0.0 0.0 0.00 0.00 0.00 10 990.7
20260503234843 52 0 0.0 0.0 0.00 0.00 0.00 10 990.7
20260503234339 52 0 0.0 0.0 0.00 0.00 0.00 10 990.8
20260503233835 53 0 0.0 0.0 0.00 0.00 0.00 10 990.8
20260503233332 53 0 0.0 0.0 0.00 0.00 0.00 10 990.8
20260503232827 53 0 0.0 0.0 0.00 0.00 0.00 10 990.8
20260503232323 53 0 0.0 0.0 0.00 0.00 0.00 10 990.8
20260503231819 53 0 0.0 0.0 0.00 0.00 0.00 10 990.8
20260503231315 53 0 0.0 0.0 0.00 0.00 0.00 10 990.9
20260503230812 53 0 0.0 0.0 0.00 0.00 0.00 10 990.9
20260503230307 53 0 0.0 0.0 0.00 0.00 0.00 10 991.0
20260503225803 54 0 0.0 0.0 0.00 0.00 0.00 10 991.0
20260503225259 54 0 0.0 0.0 0.00 0.00 0.00 10 991.0
20260503224755 54 0 0.0 0.0 0.00 0.00 0.00 10 991.0
20260503224252 53 0 0.0 0.0 0.00 0.00 0.00 10 991.1
20260503223747 53 0 0.0 0.0 0.00 0.00 0.00 10 991.0
20260503223243 54 0 0.0 0.0 0.00 0.00 0.00 10 991.0
20260503222739 54 0 0.0 0.0 0.00 0.00 0.00 10 991.0
20260503221732 54 0 0.0 0.0 0.00 0.00 0.00 10 991.0
20260503221227 54 0 0.0 0.0 0.00 0.00 0.00 10 990.9
20260503220723 54 0 0.0 0.0 0.00 0.00 0.00 10 990.8
20260503220219 54 0 0.0 0.0 0.00 0.00 0.00 10 990.8
20260503215212 54 0 0.0 0.0 0.00 0.00 0.00 10 990.8
20260503214707 54 0 0.0 0.0 0.00 0.00 0.00 10 990.7
20260503214204 54 0 0.0 0.0 0.00 0.00 0.00 10 990.7
20260503213700 54 0 0.0 0.0 0.00 0.00 0.00 10 990.6
20260503213156 54 0 0.0 0.0 0.00 0.00 0.00 10 990.6
20260503212652 55 0 0.0 0.0 0.00 0.00 0.00 10 990.6
20260503212148 54 0 0.0 0.0 0.00 0.00 0.00 10 990.6
20260503211644 54 0 0.0 0.0 0.00 0.00 0.00 10 990.5
20260503211140 55 0 0.0 0.0 0.00 0.00 0.00 10 990.5
20260503210636 55 0 0.0 0.0 0.00 0.00 0.00 10 990.4
20260503210132 56 0 0.0 0.0 0.00 0.00 0.00 10 990.3
20260503205628 56 0 0.0 0.0 0.00 0.00 0.00 10 990.2
20260503205124 57 0 0.0 0.0 0.00 0.00 0.00 10 990.2
20260503204620 57 0 0.0 0.0 0.00 0.00 0.00 10 990.1
20260503204116 57 0 0.0 0.0 0.00 0.00 0.00 10 990.0
20260503203612 57 0 0.0 0.0 0.00 0.00 0.00 10 989.9
20260503203108 57 0 0.0 0.0 0.00 0.00 0.00 10 989.8